Regional Weather Roundup
Issued by NWS Little Rock, AR

Home | Current Version | Previous Version | Text Only | Print | Product List | Glossary On
Versions: 1 2 3 4 5 6 7 8 9 10 11 12 13 14 15 16 17 18 19 20 21 22 23 24 25 26 27 28 29 30 31 32 33 34 35 36 37 38 39 40 41 42 43 44 45 46 47 48 49 50
000
ASUS44 KLZK 230905
RWRLZK

WEATHER ROUNDUP FOR ARKANSAS
NATIONAL WEATHER SERVICE LITTLE ROCK AR
400 AM CDT THU MAR 23 2017

NOTE: "FAIR" INDICATES FEW OR NO CLOUDS BELOW 12,000 FEET WITH NO
SIGNIFICANT WEATHER AND/OR OBSTRUCTIONS TO VISIBILITY.

ARZ001-003-010-029-231000-
NORTHWEST ARKANSAS

CITY           SKY/WX    TMP DP  RH WIND       PRES   REMARKS
FAYETTEVILLE   PTCLDY    52  40  63 E6        30.14F
FORT SMITH     PTCLDY    50  37  61 E10       30.16F
HARRISON       CLEAR     45  33  63 SE15      30.20F
BENTONVILLE    CLOUDY    52  37  58 SE13G20   30.15F
ROGERS         CLOUDY    51  38  60 SE15      30.14F
SILOAM SPGS    MOCLDY    54  37  54 SE9       30.13S
HIGHFILL       CLOUDY    53  40  61 SE14      30.13F
$$

ARZ004-005-016-231000-
NORTH CENTRAL ARKANSAS

CITY           SKY/WX    TMP DP  RH WIND       PRES   REMARKS
BATESVILLE     CLEAR     45  34  65 CALM      30.26F
FLIPPIN        MOCLDY    46  28  49 CALM      30.21F
MTN HOME       MOCLDY    46  29  51 SE6       30.22F
$$

ARZ040-041-231000-
WEST CENTRAL ARKANSAS

CITY           SKY/WX    TMP DP  RH WIND       PRES   REMARKS
MENA           CLEAR     50  50 100 CALM      30.17F
MOUNT IDA      PTCLDY    49  42  77 CALM      30.16F
$$

ARZ009-017-025-026-028-231000-
NORTHEAST ARKANSAS

CITY           SKY/WX    TMP DP  RH WIND       PRES   REMARKS
CORNING        CLOUDY    45  34  65 NE7       30.28F
JONESBORO      CLEAR     45  35  68 NE7       30.25S
NEWPORT        PTCLDY    45  39  79 MISG      30.25
WALNUT RIDGE   CLEAR     45  32  61 N8        30.26F
BLYTHEVILLE    CLOUDY    48  34  58 E9        30.25F
$$

ARZ022-023-033-042-044-231000-
CENTRAL ARKANSAS

CITY           SKY/WX    TMP DP  RH WIND       PRES   REMARKS
LITTLE ROCK    CLEAR     46  39  76 NE7       30.21F
N LITTLE ROCK    N/A     48  37  65 E8        30.22F
CONWAY           N/A     46  39  76 CALM      30.20F
SEARCY         CLEAR     46  37  71 NE6       30.25F
HOT SPRINGS    CLEAR     51  39  63 E5        30.19F
RUSSELLVILLE   CLEAR     50  33  52 E5        30.21F
CLINTON        CLOUDY    45  41  87 CALM      30.23F
$$

ARZ036-231000-
EAST ARKANSAS

CITY           SKY/WX    TMP DP  RH WIND       PRES   REMARKS
WEST MEMPHIS   CLEAR     50  28  42 E8        30.21F
$$

ARZ050-053-066-070-073-231000-
SOUTHWEST ARKANSAS

CITY           SKY/WX    TMP DP  RH WIND       PRES   REMARKS
ARKADELPHIA    FAIR      51  42  71 NE6       30.19F
CAMDEN         CLEAR     48  45  87 CALM      30.18S
TEXARKANA      CLEAR     54  49  83 E3        30.15S
EL DORADO      CLEAR     53  47  79 NE5       30.16F
DE QUEEN       CLEAR     53  46  77 E7        30.14F
$$

ARZ056-057-069-231000-
SOUTHEAST ARKANSAS

CITY           SKY/WX    TMP DP  RH WIND       PRES   REMARKS
PINE BLUFF     CLEAR     50  40  68 NE5       30.20F
STUTTGART      CLEAR     48  34  57 NE7       30.22F
MONTICELLO     CLEAR     52  43  71 E5        30.18F

$$





USA.gov is the U.S. government's official web portal to all federal, state and local government web resources and services.